Location: Leuk
(46.3174°N, 7.6341°E)
Time: 20:49:38
(UTC+00:00)

Cosmos 2219 Rocket - Pass Details

Date: 09 March 2021
Orbit: 826 x 848 km, 71.0° (Epoch: 22 April)

Event Time Altitude Azimuth Distance (km) Brightness Sun altitude
Rises 02:51:35 0° 337° (NNW) 3,404 5.4 -31.2°
Reaches altitude 10° 02:54:13 10° 346° (NNW) 2,469 4.8 -30.8°
Maximum altitude 02:59:28 38° 54° (NE) 1,275 3.5 -30.0°
Drops below altitude 10° 03:04:43 10° 122° (ESE) 2,466 5.0 -29.2°
Sets 03:07:20 0° 130° (SE) 3,400 5.6 -28.8°
